QPF
0.69 0.77 0.82 0.81 0.73 0.77 0.84 0.86 0.86 0.82 0.68 0.39 0.18 0.07 0.02 0.00 0.00 0.00 0.00 0.00 0.00 0.00 0.01 0.00 0.00 0.00 0.00 0.00 0.01 0.01 0.01 0.01 0.00 0.00 0.00 0.00 0.00 0.00 0.00 0.00 0.00 0.00 0.00 0.00 0.00 0.00 0.00 0.00 0.00 0.00 0.00 0.00 0.00 0.00 0.00 0.00 0.00 0.00 0.00 0.00 0.00 0.00 0.00 0.00 0.00 0.00 0.00 0.00 0.00
0.68 0.76 0.82 0.81 0.74 0.76 0.82 0.84 0.83 0.72 0.52 0.25 0.10 0.03 0.00 0.00 0.00 0.00 0.00 0.00 0.00 0.00 0.00 0.00 0.00 0.00 0.00 0.00 0.01 0.01 0.00 0.00 0.00 0.00 0.00 0.00 0.00 0.00 0.00 0.00 0.00 0.00 0.00 0.00 0.00 0.00 0.00 0.00 0.00 0.00 0.00 0.00 0.00 0.00 0.00 0.00 0.00 0.00 0.00 0.00 0.00 0.00 0.00 0.00 0.00 0.00 0.00 0.00 0.01
0.68 0.73 0.78 0.80 0.75 0.77 0.82 0.85 0.82 0.62 0.35 0.12 0.04 0.01 0.00 0.00 0.00 0.00 0.00 0.00 0.00 0.00 0.00 0.00 0.00 0.00 0.00 0.00 0.00 0.00 0.00 0.00 0.00 0.00 0.00 0.00 0.00 0.00 0.00 0.00 0.00 0.00 0.00 0.00 0.00 0.00 0.00 0.00 0.00 0.00 0.00 0.00 0.00 0.00 0.00 0.00 0.00 0.00 0.00 0.00 0.00 0.00 0.00 0.00 0.00 0.00 0.00 0.00 0.01
0.71 0.73 0.74 0.79 0.73 0.74 0.78 0.83 0.79 0.50 0.19 0.05 0.01 0.00 0.00 0.00 0.00 0.00 0.00 0.00 0.00 0.00 0.00 0.00 0.00 0.00 0.00 0.00 0.00 0.00 0.00 0.00 0.00 0.00 0.00 0.00 0.00 0.00 0.00 0.00 0.00 0.00 0.00 0.00 0.00 0.00 0.00 0.00 0.00 0.00 0.00 0.00 0.00 0.00 0.00 0.00 0.00 0.00 0.00 0.00 0.00 0.00 0.00 0.00 0.00 0.00 0.00 0.00 0.00
0.72 0.70 0.71 0.80 0.71 0.71 0.76 0.83 0.71 0.39 0.08 0.01 0.00 0.00 0.00 0.00 0.00 0.00 0.00 0.00 0.00 0.00 0.00 0.00 0.00 0.00 0.00 0.00 0.00 0.00 0.00 0.00 0.00 0.00 0.00 0.00 0.00 0.00 0.00 0.00 0.00 0.00 0.00 0.00 0.00 0.00 0.00 0.00 0.00 0.00 0.00 0.00 0.00 0.00 0.00 0.00 0.00 0.00 0.00 0.00 0.00 0.00 0.00 0.00 0.00 0.00 0.00 0.00 0.01
0.72 0.69 0.71 0.81 0.73 0.70 0.70 0.74 0.62 0.31 0.02 0.00 0.00 0.00 0.00 0.00 0.00 0.00 0.00 0.00 0.00 0.00 0.00 0.00 0.00 0.00 0.00 0.00 0.00 0.00 0.00 0.00 0.00 0.00 0.00 0.00 0.00 0.00 0.00 0.00 0.00 0.00 0.00 0.00 0.00 0.00 0.00 0.00 0.00 0.00 0.00 0.00 0.00 0.00 0.00 0.00 0.00 0.00 0.00 0.00 0.00 0.00 0.00 0.01 0.00 0.00 0.00 0.00 0.00
0.77 0.74 0.74 0.83 0.76 0.70 0.66 0.69 0.55 0.26 0.01 0.00 0.00 0.00 0.00 0.00 0.00 0.00 0.00 0.00 0.00 0.00 0.00 0.00 0.00 0.00 0.00 0.00 0.00 0.00 0.00 0.00 0.00 0.00 0.00 0.00 0.00 0.00 0.00 0.00 0.00 0.00 0.00 0.00 0.00 0.00 0.00 0.00 0.00 0.00 0.00 0.00 0.00 0.00 0.00 0.00 0.00 0.00 0.00 0.00 0.00 0.00 0.00 0.01 0.01 0.01 0.00 0.00 0.00
0.72 0.71 0.72 0.77 0.73 0.70 0.67 0.62 0.49 0.24 0.02 0.00 0.00 0.00 0.00 0.00 0.00 0.00 0.00 0.00 0.00 0.00 0.00 0.00 0.00 0.00 0.00 0.00 0.00 0.00 0.00 0.00 0.00 0.00 0.00 0.00 0.00 0.00 0.00 0.01 0.01 0.00 0.00 0.00 0.00 0.00 0.01 0.01 0.00 0.00 0.00 0.00 0.00 0.00 0.00 0.00 0.00 0.00 0.00 0.00 0.00 0.00 0.00 0.01 0.02 0.01 0.00 0.00 0.00
0.86 0.82 0.75 0.72 0.74 0.71 0.66 0.59 0.44 0.21 0.03 0.00 0.00 0.00 0.00 0.00 0.00 0.00 0.00 0.00 0.00 0.00 0.00 0.00 0.00 0.00 0.00 0.00 0.00 0.00 0.00 0.00 0.00 0.00 0.00 0.00 0.00 0.00 0.01 0.01 0.01 0.01 0.01 0.01 0.01 0.01 0.01 0.02 0.01 0.01 0.01 0.00 0.00 0.00 0.00 0.00 0.00 0.00 0.00 0.00 0.00 0.00 0.00 0.00 0.01 0.01 0.00 0.00 0.01
0.85 0.82 0.75 0.74 0.75 0.71 0.65 0.58 0.44 0.21 0.02 0.00 0.00 0.00 0.00 0.00 0.00 0.00 0.00 0.00 0.00 0.00 0.00 0.00 0.00 0.00 0.00 0.00 0.00 0.00 0.00 0.00 0.00 0.00 0.00 0.00 0.00 0.00 0.01 0.01 0.01 0.01 0.01 0.01 0.01 0.02 0.02 0.02 0.02 0.02 0.01 0.01 0.00 0.00 0.00 0.00 0.00 0.00 0.00 0.00 0.00 0.00 0.00 0.00 0.01 0.00 0.00 0.01 0.04
0.79 0.76 0.72 0.73 0.76 0.72 0.63 0.53 0.38 0.18 0.02 0.00 0.00 0.00 0.00 0.00 0.00 0.00 0.00 0.00 0.00 0.00 0.00 0.00 0.00 0.00 0.00 0.00 0.00 0.00 0.00 0.00 0.00 0.00 0.00 0.00 0.00 0.00 0.01 0.01 0.01 0.02 0.02 0.03 0.03 0.04 0.04 0.04 0.03 0.03 0.02 0.01 0.01 0.01 0.00 0.00 0.00 0.00 0.00 0.00 0.00 0.00 0.00 0.00 0.01 0.01 0.01 0.02 0.05
0.73 0.74 0.72 0.71 0.74 0.71 0.61 0.45 0.30 0.14 0.01 0.00 0.00 0.00 0.00 0.00 0.00 0.00 0.00 0.00 0.00 0.00 0.00 0.00 0.00 0.00 0.00 0.00 0.00 0.00 0.00 0.00 0.00 0.00 0.00 0.00 0.00 0.00 0.01 0.01 0.01 0.02 0.03 0.03 0.06 0.07 0.08 0.05 0.04 0.04 0.03 0.03 0.02 0.02 0.01 0.01 0.01 0.01 0.01 0.01 0.01 0.01 0.00 0.00 0.01 0.02 0.03 0.03 0.04
0.68 0.72 0.75 0.73 0.72 0.68 0.58 0.40 0.23 0.09 0.01 0.00 0.00 0.00 0.00 0.00 0.00 0.00 0.00 0.00 0.00 0.00 0.00 0.00 0.00 0.00 0.00 0.00 0.00 0.00 0.00 0.01 0.01 0.01 0.01 0.01 0.01 0.01 0.01 0.01 0.02 0.02 0.03 0.04 0.08 0.10 0.09 0.07 0.05 0.05 0.05 0.04 0.04 0.03 0.03 0.03 0.03 0.02 0.02 0.02 0.01 0.01 0.01 0.01 0.03 0.05 0.05 0.03 0.03
0.67 0.68 0.72 0.72 0.72 0.65 0.52 0.31 0.16 0.05 0.00 0.00 0.00 0.00 0.00 0.00 0.00 0.00 0.00 0.00 0.00 0.00 0.00 0.00 0.00 0.00 0.00 0.00 0.00 0.01 0.01 0.01 0.01 0.01 0.01 0.01 0.01 0.01 0.01 0.01 0.02 0.02 0.03 0.04 0.08 0.09 0.08 0.06 0.06 0.05 0.05 0.06 0.06 0.05 0.04 0.05 0.04 0.03 0.02 0.02 0.02 0.02 0.02 0.03 0.06 0.06 0.05 0.03 0.03
0.74 0.69 0.67 0.68 0.70 0.62 0.45 0.23 0.10 0.03 0.00 0.00 0.00 0.00 0.00 0.00 0.00 0.00 0.00 0.00 0.00 0.00 0.00 0.00 0.00 0.00 0.00 0.01 0.01 0.01 0.01 0.01 0.01 0.01 0.01 0.01 0.01 0.01 0.02 0.02 0.02 0.02 0.03 0.04 0.06 0.07 0.06 0.05 0.05 0.05 0.05 0.06 0.06 0.05 0.05 0.06 0.05 0.04 0.03 0.02 0.02 0.02 0.04 0.07 0.09 0.07 0.05 0.02 0.03
0.85 0.71 0.62 0.64 0.62 0.52 0.34 0.13 0.05 0.01 0.00 0.00 0.00 0.00 0.00 0.00 0.00 0.00 0.00 0.00 0.00 0.00 0.00 0.00 0.00 0.01 0.01 0.01 0.01 0.01 0.01 0.01 0.01 0.01 0.02 0.02 0.02 0.02 0.02 0.01 0.02 0.02 0.02 0.03 0.04 0.05 0.05 0.04 0.04 0.03 0.04 0.05 0.05 0.05 0.04 0.05 0.05 0.04 0.04 0.02 0.02 0.03 0.05 0.08 0.07 0.05 0.02 0.02 0.02
0.88 0.68 0.59 0.57 0.51 0.38 0.21 0.05 0.02 0.01 0.00 0.00 0.00 0.00 0.00 0.00 0.00 0.00 0.00 0.00 0.00 0.00 0.01 0.01 0.01 0.01 0.01 0.01 0.01 0.01 0.01 0.01 0.01 0.02 0.02 0.01 0.02 0.01 0.01 0.01 0.01 0.01 0.02 0.03 0.04 0.04 0.04 0.04 0.03 0.03 0.03 0.03 0.03 0.03 0.03 0.03 0.03 0.03 0.03 0.02 0.02 0.02 0.03 0.04 0.02 0.01 0.01 0.01 0.01
0.88 0.63 0.53 0.47 0.36 0.22 0.09 0.02 0.01 0.00 0.00 0.00 0.00 0.00 0.00 0.00 0.00 0.00 0.00 0.00 0.01 0.01 0.01 0.01 0.01 0.01 0.01 0.01 0.01 0.02 0.02 0.02 0.02 0.02 0.01 0.01 0.01 0.01 0.01 0.01 0.01 0.01 0.02 0.02 0.03 0.04 0.04 0.04 0.03 0.03 0.02 0.02 0.02 0.02 0.02 0.02 0.02 0.02 0.02 0.02 0.02 0.01 0.01 0.01 0.01 0.01 0.01 0.01 0.02
0.85 0.57 0.44 0.36 0.24 0.13 0.04 0.02 0.01 0.00 0.00 0.00 0.00 0.00 0.00 0.00 0.00 0.00 0.00 0.00 0.01 0.01 0.01 0.01 0.01 0.01 0.01 0.01 0.01 0.02 0.02 0.01 0.01 0.01 0.01 0.01 0.01 0.01 0.01 0.01 0.01 0.01 0.02 0.02 0.03 0.04 0.04 0.04 0.03 0.03 0.03 0.02 0.03 0.03 0.04 0.04 0.03 0.03 0.02 0.02 0.01 0.01 0.01 0.01 0.01 0.01 0.02 0.02 0.03
0.75 0.51 0.32 0.23 0.18 0.11 0.06 0.02 0.00 0.00 0.00 0.00 0.00 0.00 0.00 0.00 0.00 0.00 0.00 0.01 0.01 0.01 0.01 0.01 0.01 0.01 0.01 0.01 0.01 0.01 0.01 0.01 0.01 0.01 0.01 0.01 0.01 0.01 0.01 0.01 0.01 0.01 0.02 0.02 0.03 0.05 0.07 0.07 0.05 0.04 0.04 0.03 0.04 0.04 0.04 0.06 0.05 0.04 0.04 0.03 0.02 0.02 0.01 0.01 0.01 0.02 0.03 0.03 0.04
0.69 0.52 0.27 0.17 0.12 0.08 0.05 0.02 0.01 0.00 0.00 0.00 0.00 0.00 0.00 0.00 0.00 0.00 0.00 0.00 0.01 0.01 0.01 0.01 0.01 0.01 0.01 0.02 0.02 0.02 0.02 0.01 0.01 0.01 0.01 0.01 0.01 0.01 0.01 0.01 0.02 0.02 0.02 0.04 0.04 0.05 0.07 0.09 0.08 0.08 0.08 0.09 0.07 0.05 0.04 0.05 0.06 0.06 0.05 0.04 0.03 0.02 0.02 0.02 0.02 0.02 0.02 0.04 0.04
0.72 0.62 0.37 0.16 0.09 0.05 0.04 0.04 0.02 0.01 0.00 0.00 0.00 0.00 0.00 0.00 0.00 0.00 0.00 0.00 0.00 0.01 0.01 0.01 0.01 0.01 0.01 0.01 0.02 0.02 0.02 0.02 0.01 0.01 0.01 0.01 0.01 0.02 0.02 0.02 0.02 0.03 0.04 0.05 0.05 0.05 0.06 0.09 0.10 0.11 0.12 0.13 0.10 0.08 0.07 0.05 0.05 0.06 0.06 0.05 0.04 0.04 0.03 0.03 0.03 0.02 0.03 0.03 0.04
0.64 0.71 0.56 0.21 0.13 0.08 0.06 0.06 0.02 0.00 0.00 0.00 0.00 0.00 0.00 0.00 0.00 0.00 0.00 0.00 0.00 0.01 0.01 0.01 0.01 0.01 0.01 0.01 0.01 0.02 0.02 0.02 0.02 0.02 0.02 0.02 0.02 0.02 0.02 0.03 0.03 0.04 0.04 0.05 0.05 0.06 0.08 0.09 0.11 0.14 0.16 0.17 0.15 0.15 0.15 0.13 0.13 0.11 0.10 0.08 0.06 0.07 0.08 0.07 0.05 0.04 0.04 0.04 0.04
0.47 0.66 0.69 0.40 0.21 0.12 0.07 0.03 0.01 0.00 0.00 0.00 0.00 0.00 0.00 0.00 0.00 0.00 0.00 0.00 0.00 0.01 0.01 0.01 0.01 0.01 0.00 0.00 0.01 0.01 0.02 0.02 0.03 0.03 0.03 0.03 0.02 0.03 0.03 0.04 0.04 0.04 0.04 0.04 0.05 0.06 0.07 0.10 0.11 0.15 0.20 0.24 0.27 0.28 0.28 0.29 0.29 0.27 0.23 0.20 0.14 0.16 0.20 0.18 0.15 0.12 0.10 0.08 0.07
0.34 0.48 0.61 0.56 0.28 0.13 0.07 0.02 0.01 0.00 0.00 0.00 0.00 0.00 0.00 0.00 0.00 0.00 0.00 0.01 0.01 0.01 0.01 0.01 0.01 0.00 0.00 0.00 0.01 0.07 0.14 0.16 0.15 0.16 0.19 0.22 0.25 0.27 0.29 0.29 0.23 0.21 0.23 0.25 0.26 0.21 0.15 0.10 0.11 0.12 0.19 0.32 0.34 0.38 0.42 0.44 0.43 0.41 0.38 0.38 0.32 0.35 0.40 0.35 0.33 0.30 0.25 0.20 0.17
0.31 0.30 0.41 0.58 0.34 0.16 0.05 0.02 0.00 0.00 0.00 0.00 0.00 0.00 0.00 0.00 0.00 0.01 0.01 0.01 0.01 0.01 0.01 0.01 0.02 0.02 0.02 0.02 0.05 0.07 0.08 0.07 0.07 0.07 0.08 0.08 0.09 0.10 0.10 0.11 0.13 0.15 0.19 0.23 0.18 0.13 0.09 0.09 0.09 0.13 0.21 0.34 0.43 0.49 0.53 0.56 0.56 0.55 0.54 0.53 0.50 0.49 0.49 0.48 0.45 0.42 0.39 0.35 0.30
0.50 0.24 0.21 0.36 0.32 0.18 0.04 0.01 0.00 0.00 0.00 0.00 0.00 0.00 0.01 0.01 0.01 0.01 0.02 0.02 0.03 0.04 0.04 0.05 0.05 0.05 0.05 0.05 0.04 0.04 0.04 0.03 0.03 0.02 0.02 0.03 0.03 0.03 0.03 0.03 0.04 0.07 0.09 0.10 0.10 0.09 0.07 0.06 0.10 0.15 0.24 0.38 0.53 0.59 0.59 0.60 0.58 0.58 0.58 0.57 0.52 0.49 0.49 0.49 0.51 0.49 0.46 0.44 0.39
0.87 0.44 0.22 0.15 0.20 0.14 0.04 0.00 0.00 0.00 0.00 0.00 0.00 0.01 0.01 0.01 0.01 0.02 0.03 0.04 0.05 0.06 0.07 0.07 0.05 0.04 0.03 0.03 0.02 0.02 0.02 0.01 0.01 0.01 0.01 0.01 0.01 0.01 0.01 0.01 0.01 0.02 0.03 0.04 0.05 0.06 0.07 0.06 0.12 0.23 0.37 0.51 0.58 0.50 0.40 0.41 0.43 0.46 0.50 0.53 0.43 0.40 0.41 0.43 0.43 0.41 0.39 0.36 0.35
1.31 0.80 0.38 0.15 0.11 0.08 0.05 0.03 0.03 0.02 0.01 0.01 0.01 0.01 0.01 0.02 0.03 0.05 0.06 0.07 0.07 0.07 0.07 0.06 0.03 0.02 0.02 0.02 0.02 0.01 0.01 0.01 0.01 0.01 0.01 0.01 0.01 0.01 0.01 0.01 0.01 0.01 0.01 0.02 0.02 0.03 0.04 0.04 0.09 0.21 0.32 0.34 0.31 0.29 0.29 0.29 0.30 0.32 0.35 0.37 0.32 0.32 0.34 0.35 0.35 0.34 0.33 0.32 0.34
1.51 1.23 0.69 0.33 0.17 0.10 0.09 0.08 0.05 0.04 0.03 0.02 0.03 0.03 0.04 0.05 0.06 0.07 0.08 0.08 0.06 0.04 0.03 0.02 0.01 0.01 0.01 0.02 0.01 0.01 0.01 0.01 0.01 0.01 0.01 0.01 0.01 0.01 0.01 0.01 0.01 0.02 0.02 0.02 0.03 0.03 0.03 0.04 0.06 0.11 0.16 0.18 0.19 0.20 0.22 0.23 0.24 0.25 0.27 0.30 0.33 0.36 0.38 0.39 0.37 0.36 0.35 0.34 0.33
1.07 1.24 1.12 0.76 0.42 0.24 0.17 0.12 0.07 0.05 0.05 0.05 0.06 0.06 0.06 0.06 0.07 0.07 0.06 0.04 0.03 0.02 0.01 0.01 0.01 0.02 0.02 0.01 0.01 0.01 0.01 0.01 0.01 0.01 0.01 0.01 0.01 0.01 0.01 0.02 0.03 0.05 0.06 0.06 0.04 0.04 0.04 0.04 0.05 0.07 0.09 0.11 0.14 0.18 0.21 0.22 0.22 0.25 0.28 0.30 0.33 0.36 0.39 0.42 0.46 0.48 0.46 0.42 0.39
0.72 0.92 0.94 0.72 0.50 0.32 0.19 0.10 0.07 0.05 0.05 0.05 0.04 0.04 0.04 0.03 0.04 0.03 0.03 0.03 0.02 0.02 0.02 0.02 0.02 0.02 0.02 0.01 0.01 0.01 0.01 0.01 0.01 0.01 0.01 0.01 0.01 0.01 0.02 0.03 0.06 0.08 0.09 0.08 0.08 0.06 0.05 0.04 0.04 0.05 0.06 0.09 0.13 0.16 0.18 0.20 0.21 0.23 0.24 0.24 0.30 0.34 0.37 0.41 0.48 0.49 0.47 0.44 0.44
0.48 0.59 0.61 0.49 0.35 0.23 0.14 0.07 0.04 0.03 0.03 0.02 0.02 0.02 0.03 0.03 0.03 0.03 0.03 0.02 0.02 0.02 0.03 0.03 0.02 0.02 0.02 0.01 0.01 0.01 0.01 0.01 0.01 0.01 0.01 0.01 0.01 0.01 0.03 0.05 0.08 0.10 0.11 0.10 0.09 0.07 0.06 0.05 0.05 0.05 0.06 0.08 0.11 0.14 0.16 0.17 0.18 0.19 0.21 0.23 0.25 0.30 0.35 0.40 0.42 0.44 0.45 0.46 0.46
0.27 0.32 0.34 0.29 0.23 0.16 0.10 0.05 0.03 0.02 0.02 0.02 0.02 0.02 0.02 0.03 0.03 0.03 0.03 0.03 0.03 0.03 0.04 0.03 0.02 0.02 0.02 0.02 0.02 0.02 0.02 0.02 0.02 0.01 0.01 0.01 0.01 0.02 0.03 0.05 0.07 0.09 0.10 0.09 0.09 0.08 0.06 0.05 0.05 0.06 0.07 0.09 0.12 0.13 0.14 0.15 0.17 0.18 0.20 0.23 0.24 0.27 0.31 0.37 0.40 0.42 0.45 0.46 0.47
0.15 0.17 0.19 0.19 0.15 0.11 0.07 0.04 0.02 0.02 0.02 0.02 0.03 0.03 0.03 0.02 0.03 0.03 0.03 0.03 0.04 0.04 0.05 0.04 0.03 0.02 0.02 0.02 0.02 0.02 0.02 0.02 0.02 0.02 0.02 0.02 0.01 0.02 0.02 0.04 0.06 0.07 0.08 0.07 0.06 0.06 0.05 0.04 0.04 0.05 0.06 0.10 0.12 0.13 0.14 0.15 0.16 0.17 0.18 0.21 0.24 0.28 0.31 0.34 0.37 0.41 0.45 0.48 0.52
0.09 0.11 0.12 0.13 0.11 0.08 0.05 0.03 0.02 0.02 0.02 0.02 0.03 0.03 0.03 0.03 0.03 0.03 0.03 0.03 0.04 0.05 0.06 0.05 0.04 0.03 0.03 0.03 0.02 0.02 0.03 0.03 0.03 0.02 0.02 0.02 0.02 0.02 0.02 0.03 0.04 0.05 0.05 0.05 0.05 0.05 0.05 0.04 0.05 0.04 0.05 0.08 0.09 0.11 0.12 0.14 0.15 0.16 0.18 0.21 0.24 0.27 0.29 0.32 0.36 0.41 0.46 0.52 0.56
0.06 0.07 0.08 0.08 0.07 0.05 0.03 0.02 0.02 0.02 0.03 0.03 0.03 0.03 0.03 0.03 0.04 0.04 0.04 0.04 0.04 0.05 0.06 0.06 0.05 0.04 0.04 0.03 0.03 0.03 0.04 0.04 0.03 0.03 0.03 0.02 0.02 0.02 0.03 0.03 0.04 0.04 0.05 0.06 0.06 0.06 0.06 0.06 0.06 0.06 0.05 0.05 0.06 0.08 0.10 0.12 0.13 0.15 0.17 0.21 0.24 0.27 0.29 0.31 0.34 0.37 0.41 0.44 0.48
0.05 0.04 0.04 0.04 0.03 0.03 0.03 0.02 0.02 0.03 0.03 0.03 0.04 0.04 0.04 0.04 0.05 0.05 0.05 0.04 0.05 0.06 0.07 0.07 0.06 0.06 0.05 0.04 0.04 0.04 0.04 0.04 0.03 0.03 0.02 0.02 0.02 0.02 0.02 0.03 0.04 0.05 0.06 0.07 0.07 0.08 0.08 0.08 0.08 0.08 0.07 0.07 0.07 0.08 0.09 0.12 0.13 0.14 0.15 0.19 0.22 0.26 0.29 0.32 0.34 0.37 0.40 0.44 0.47
0.03 0.03 0.02 0.02 0.02 0.02 0.02 0.02 0.03 0.03 0.04 0.04 0.05 0.04 0.04 0.05 0.05 0.05 0.05 0.05 0.06 0.07 0.07 0.08 0.08 0.07 0.05 0.04 0.04 0.04 0.04 0.04 0.04 0.03 0.03 0.03 0.03 0.02 0.02 0.02 0.04 0.06 0.07 0.08 0.09 0.10 0.10 0.11 0.11 0.10 0.10 0.09 0.10 0.10 0.11 0.14 0.15 0.15 0.16 0.17 0.20 0.24 0.27 0.31 0.34 0.37 0.39 0.42 0.45
0.02 0.02 0.02 0.01 0.02 0.02 0.02 0.03 0.04 0.05 0.05 0.05 0.05 0.05 0.05 0.06 0.06 0.06 0.06 0.06 0.07 0.07 0.07 0.08 0.08 0.07 0.06 0.05 0.04 0.04 0.04 0.04 0.04 0.03 0.03 0.03 0.03 0.02 0.02 0.03 0.04 0.06 0.07 0.08 0.09 0.10 0.11 0.11 0.12 0.12 0.11 0.11 0.12 0.12 0.13 0.14 0.15 0.16 0.17 0.18 0.19 0.22 0.26 0.29 0.32 0.34 0.35 0.38 0.40
0.02 0.02 0.02 0.02 0.02 0.02 0.03 0.04 0.05 0.06 0.07 0.07 0.07 0.07 0.07 0.06 0.06 0.06 0.06 0.06 0.07 0.07 0.07 0.07 0.08 0.07 0.06 0.05 0.04 0.04 0.04 0.04 0.04 0.04 0.03 0.03 0.03 0.02 0.02 0.03 0.04 0.05 0.06 0.07 0.09 0.09 0.09 0.10 0.10 0.11 0.11 0.11 0.12 0.12 0.12 0.13 0.15 0.16 0.17 0.18 0.19 0.21 0.23 0.26 0.29 0.30 0.32 0.34 0.36
MSLP
996.09 996.33 996.53 996.73 997.17 997.97 998.77 999.09 999.25 999.81 1000.13 999.81 999.33 998.85 998.65 998.81 999.17 999.53 999.81 1000.09 1000.45 1000.77 1001.05 1001.21 1001.37 1001.53 1001.77 1002.13 1002.49 1002.77 1002.97 1003.17 1003.37 1003.69 1003.97 1004.25 1004.53 1004.85 1005.13 1005.41 1005.69 1005.97 1006.21 1006.45 1006.65 1006.85 1007.01 1007.17 1007.33 1007.53 1007.73 1007.89 1008.09 1008.25 1008.37 1008.53 1008.77 1009.01 1009.25 1009.41 1009.61 1009.77 1009.93 1010.09 1010.25 1010.37 1010.53 1010.61 1010.69
995.97 996.21 996.41 996.65 997.09 997.81 998.45 998.81 999.17 999.61 999.81 999.41 998.97 998.53 998.41 998.73 999.13 999.53 999.81 1000.05 1000.29 1000.53 1000.81 1001.05 1001.21 1001.37 1001.57 1001.89 1002.25 1002.53 1002.81 1003.05 1003.25 1003.53 1003.81 1004.13 1004.41 1004.69 1005.01 1005.33 1005.61 1005.85 1006.09 1006.37 1006.57 1006.77 1006.97 1007.09 1007.29 1007.49 1007.65 1007.81 1007.97 1008.17 1008.25 1008.29 1008.53 1008.81 1009.09 1009.29 1009.45 1009.57 1009.77 1009.97 1010.09 1010.21 1010.33 1010.45 1010.57
995.93 996.13 996.37 996.53 996.89 997.49 998.09 998.53 999.09 999.33 999.25 998.97 998.41 998.17 998.33 998.73 999.13 999.49 999.77 999.97 1000.17 1000.37 1000.69 1000.97 1001.13 1001.33 1001.53 1001.81 1002.09 1002.37 1002.65 1002.93 1003.17 1003.45 1003.73 1004.05 1004.33 1004.65 1004.97 1005.25 1005.53 1005.81 1006.05 1006.29 1006.49 1006.69 1006.85 1007.05 1007.25 1007.41 1007.57 1007.69 1007.85 1008.05 1008.13 1008.21 1008.33 1008.61 1008.93 1009.13 1009.25 1009.41 1009.61 1009.77 1009.93 1010.01 1010.17 1010.33 1010.41
995.85 996.09 996.29 996.41 996.61 997.09 997.77 998.49 999.01 999.05 998.69 998.21 997.81 997.89 998.25 998.65 999.09 999.41 999.69 999.97 1000.17 1000.37 1000.61 1000.81 1001.09 1001.33 1001.57 1001.81 1002.09 1002.33 1002.61 1002.85 1003.13 1003.37 1003.69 1003.93 1004.25 1004.53 1004.85 1005.17 1005.45 1005.73 1005.97 1006.17 1006.41 1006.65 1006.81 1006.97 1007.17 1007.37 1007.53 1007.65 1007.81 1007.93 1008.01 1008.09 1008.25 1008.49 1008.73 1008.93 1009.05 1009.25 1009.41 1009.57 1009.69 1009.85 1010.01 1010.21 1010.29
995.81 995.97 996.13 996.25 996.49 996.89 997.69 998.61 998.97 998.73 998.17 997.65 997.61 997.93 998.33 998.65 999.05 999.37 999.69 999.97 1000.21 1000.33 1000.49 1000.69 1000.97 1001.29 1001.57 1001.81 1002.09 1002.33 1002.61 1002.89 1003.17 1003.41 1003.65 1003.85 1004.13 1004.45 1004.77 1005.05 1005.37 1005.65 1005.89 1006.13 1006.37 1006.61 1006.81 1006.93 1007.09 1007.29 1007.45 1007.53 1007.69 1007.81 1007.89 1008.01 1008.21 1008.37 1008.57 1008.73 1008.89 1009.05 1009.21 1009.37 1009.53 1009.69 1009.81 1010.01 1010.17
995.77 995.97 996.09 996.25 996.53 996.93 997.69 998.69 998.93 998.45 997.77 997.37 997.57 997.97 998.37 998.65 999.01 999.33 999.65 999.89 1000.09 1000.25 1000.45 1000.65 1000.93 1001.25 1001.53 1001.81 1002.09 1002.33 1002.61 1002.89 1003.17 1003.37 1003.57 1003.81 1004.05 1004.37 1004.69 1004.97 1005.25 1005.53 1005.81 1006.05 1006.29 1006.53 1006.73 1006.93 1007.09 1007.25 1007.37 1007.53 1007.69 1007.77 1007.85 1007.97 1008.17 1008.37 1008.53 1008.69 1008.77 1008.89 1009.09 1009.25 1009.37 1009.53 1009.69 1009.93 1010.09
995.65 995.89 996.09 996.33 996.65 997.05 997.73 998.69 998.85 998.33 997.69 997.45 997.69 997.97 998.33 998.65 998.97 999.25 999.53 999.69 999.93 1000.17 1000.41 1000.65 1000.93 1001.17 1001.45 1001.77 1002.01 1002.29 1002.53 1002.81 1003.09 1003.33 1003.53 1003.73 1003.97 1004.29 1004.65 1004.93 1005.17 1005.45 1005.73 1005.97 1006.25 1006.45 1006.65 1006.85 1007.09 1007.25 1007.37 1007.49 1007.65 1007.77 1007.85 1007.97 1008.17 1008.37 1008.57 1008.69 1008.81 1008.85 1008.97 1009.13 1009.25 1009.41 1009.61 1009.81 1010.01
995.61 995.81 996.05 996.29 996.65 997.09 997.81 998.65 998.81 998.37 997.81 997.57 997.73 997.97 998.25 998.57 998.93 999.21 999.41 999.65 999.85 1000.09 1000.29 1000.53 1000.77 1001.01 1001.29 1001.61 1001.89 1002.17 1002.45 1002.77 1003.05 1003.29 1003.49 1003.69 1003.97 1004.25 1004.57 1004.85 1005.13 1005.41 1005.69 1005.89 1006.13 1006.37 1006.61 1006.81 1007.01 1007.21 1007.37 1007.53 1007.65 1007.77 1007.89 1008.01 1008.21 1008.41 1008.61 1008.73 1008.81 1008.89 1009.01 1009.09 1009.25 1009.37 1009.57 1009.73 1009.93
995.65 995.81 995.97 996.25 996.57 997.21 998.01 998.77 998.85 998.49 997.97 997.61 997.69 997.89 998.17 998.49 998.81 999.09 999.37 999.57 999.73 999.89 1000.09 1000.37 1000.61 1000.85 1001.13 1001.45 1001.69 1002.01 1002.33 1002.65 1002.97 1003.25 1003.53 1003.73 1004.05 1004.29 1004.53 1004.81 1005.09 1005.37 1005.61 1005.81 1006.09 1006.33 1006.57 1006.81 1006.97 1007.13 1007.29 1007.45 1007.61 1007.77 1007.89 1008.01 1008.25 1008.45 1008.61 1008.73 1008.85 1008.97 1009.05 1009.17 1009.29 1009.45 1009.61 1009.81 1009.97
995.57 995.77 995.97 996.25 996.53 997.29 998.25 998.89 998.89 998.49 997.93 997.57 997.57 997.81 998.09 998.37 998.69 998.97 999.17 999.37 999.57 999.77 1000.01 1000.25 1000.53 1000.81 1001.09 1001.37 1001.61 1001.89 1002.21 1002.53 1002.81 1003.17 1003.49 1003.81 1004.09 1004.33 1004.53 1004.77 1005.01 1005.29 1005.57 1005.81 1006.01 1006.25 1006.49 1006.73 1006.93 1007.09 1007.25 1007.37 1007.57 1007.77 1007.93 1008.09 1008.25 1008.45 1008.65 1008.73 1008.89 1009.01 1009.13 1009.21 1009.37 1009.49 1009.65 1009.81 1010.01
995.41 995.69 995.93 996.21 996.57 997.41 998.37 998.93 998.85 998.37 997.73 997.37 997.49 997.77 998.05 998.37 998.61 998.81 999.05 999.25 999.53 999.73 999.97 1000.09 1000.37 1000.65 1000.97 1001.25 1001.53 1001.77 1002.09 1002.37 1002.73 1003.09 1003.49 1003.81 1004.09 1004.29 1004.49 1004.73 1004.97 1005.25 1005.53 1005.77 1005.97 1006.21 1006.45 1006.65 1006.93 1007.09 1007.25 1007.37 1007.53 1007.77 1007.97 1008.09 1008.29 1008.45 1008.61 1008.77 1008.89 1009.05 1009.17 1009.25 1009.33 1009.49 1009.69 1009.81 1010.01
995.37 995.65 995.89 996.25 996.81 997.69 998.53 998.77 998.65 998.13 997.53 997.25 997.37 997.69 997.97 998.21 998.45 998.73 999.01 999.25 999.49 999.69 999.89 1000.05 1000.29 1000.61 1000.89 1001.13 1001.37 1001.69 1001.97 1002.33 1002.65 1003.01 1003.37 1003.69 1004.01 1004.25 1004.49 1004.73 1004.97 1005.25 1005.49 1005.73 1005.97 1006.17 1006.37 1006.65 1006.85 1007.05 1007.25 1007.41 1007.57 1007.77 1007.93 1008.09 1008.25 1008.45 1008.61 1008.73 1008.89 1009.01 1009.13 1009.25 1009.33 1009.49 1009.65 1009.81 1009.97
995.29 995.69 995.97 996.37 997.01 997.85 998.49 998.53 998.37 997.81 997.25 997.09 997.29 997.61 997.89 998.09 998.37 998.65 998.93 999.21 999.45 999.69 999.89 1000.09 1000.29 1000.53 1000.85 1001.09 1001.33 1001.61 1001.97 1002.29 1002.61 1002.93 1003.25 1003.65 1003.93 1004.21 1004.45 1004.73 1004.97 1005.25 1005.49 1005.69 1005.97 1006.17 1006.37 1006.57 1006.81 1007.01 1007.25 1007.41 1007.57 1007.73 1007.89 1008.09 1008.25 1008.45 1008.57 1008.73 1008.89 1009.01 1009.09 1009.25 1009.33 1009.45 1009.65 1009.81 1009.97
995.37 995.73 996.09 996.49 997.25 997.89 998.33 998.33 997.97 997.37 996.97 997.05 997.25 997.53 997.77 998.05 998.29 998.57 998.81 999.13 999.41 999.69 999.89 1000.13 1000.37 1000.61 1000.81 1001.09 1001.33 1001.61 1001.97 1002.25 1002.61 1002.93 1003.25 1003.57 1003.89 1004.17 1004.45 1004.69 1004.93 1005.17 1005.41 1005.69 1005.89 1006.13 1006.37 1006.53 1006.73 1006.97 1007.17 1007.37 1007.53 1007.73 1007.89 1008.05 1008.25 1008.37 1008.53 1008.65 1008.81 1008.93 1009.01 1009.13 1009.25 1009.41 1009.53 1009.73 1009.85
995.53 995.81 996.13 996.61 997.37 997.93 998.13 998.01 997.37 996.93 996.81 997.01 997.21 997.41 997.69 998.01 998.25 998.53 998.81 999.09 999.37 999.65 999.89 1000.17 1000.45 1000.65 1000.85 1001.09 1001.33 1001.65 1001.97 1002.25 1002.57 1002.93 1003.25 1003.57 1003.85 1004.09 1004.37 1004.65 1004.85 1005.09 1005.33 1005.57 1005.81 1006.05 1006.25 1006.45 1006.65 1006.85 1007.09 1007.33 1007.53 1007.69 1007.89 1008.05 1008.17 1008.29 1008.41 1008.53 1008.65 1008.77 1008.89 1009.05 1009.21 1009.33 1009.49 1009.61 1009.77
995.49 995.73 996.13 996.81 997.53 997.89 997.85 997.49 996.81 996.53 996.69 996.97 997.17 997.37 997.65 997.93 998.21 998.53 998.81 999.09 999.37 999.65 999.89 1000.17 1000.41 1000.65 1000.93 1001.17 1001.37 1001.69 1001.97 1002.25 1002.57 1002.89 1003.21 1003.49 1003.81 1004.09 1004.33 1004.53 1004.81 1005.05 1005.29 1005.53 1005.77 1005.97 1006.17 1006.37 1006.53 1006.77 1006.97 1007.21 1007.41 1007.61 1007.81 1007.97 1008.09 1008.25 1008.33 1008.41 1008.53 1008.61 1008.77 1008.89 1009.09 1009.21 1009.37 1009.49 1009.65
995.33 995.81 996.41 997.09 997.61 997.77 997.41 996.73 996.37 996.37 996.65 996.89 997.13 997.37 997.61 997.89 998.17 998.49 998.81 999.09 999.33 999.65 999.93 1000.17 1000.37 1000.65 1000.97 1001.25 1001.45 1001.73 1002.01 1002.25 1002.53 1002.81 1003.13 1003.41 1003.73 1004.01 1004.25 1004.49 1004.73 1004.97 1005.25 1005.53 1005.77 1005.97 1006.13 1006.33 1006.49 1006.65 1006.85 1007.05 1007.25 1007.45 1007.69 1007.85 1008.01 1008.09 1008.25 1008.33 1008.41 1008.53 1008.65 1008.81 1008.97 1009.09 1009.21 1009.37 1009.53
995.77 996.37 996.89 997.29 997.53 997.33 996.77 996.13 996.09 996.33 996.61 996.81 997.09 997.33 997.57 997.85 998.17 998.49 998.81 999.05 999.29 999.61 999.93 1000.21 1000.41 1000.65 1000.97 1001.29 1001.53 1001.81 1002.01 1002.25 1002.53 1002.81 1003.09 1003.37 1003.69 1003.93 1004.17 1004.37 1004.65 1004.93 1005.21 1005.45 1005.69 1005.89 1006.09 1006.25 1006.41 1006.57 1006.77 1006.97 1007.13 1007.29 1007.53 1007.73 1007.81 1007.97 1008.09 1008.21 1008.33 1008.45 1008.57 1008.73 1008.81 1008.97 1009.09 1009.25 1009.37
996.33 996.77 997.05 997.09 997.01 996.57 996.09 995.89 995.97 996.25 996.53 996.81 997.05 997.33 997.57 997.85 998.17 998.49 998.81 999.09 999.41 999.69 999.97 1000.25 1000.53 1000.81 1001.09 1001.33 1001.61 1001.85 1002.09 1002.29 1002.57 1002.85 1003.13 1003.37 1003.69 1003.93 1004.13 1004.37 1004.65 1004.89 1005.17 1005.37 1005.61 1005.81 1006.01 1006.21 1006.37 1006.53 1006.73 1006.89 1007.05 1007.21 1007.37 1007.57 1007.69 1007.85 1007.97 1008.09 1008.25 1008.37 1008.49 1008.65 1008.73 1008.81 1008.97 1009.09 1009.21
996.25 996.53 996.73 996.65 996.37 996.09 995.81 995.81 995.97 996.25 996.53 996.81 997.09 997.37 997.69 997.89 998.21 998.53 998.89 999.25 999.57 999.81 1000.09 1000.33 1000.65 1000.93 1001.21 1001.45 1001.69 1001.93 1002.17 1002.41 1002.65 1002.97 1003.21 1003.45 1003.73 1003.97 1004.21 1004.41 1004.69 1004.97 1005.17 1005.37 1005.53 1005.73 1005.93 1006.17 1006.33 1006.49 1006.65 1006.85 1007.01 1007.17 1007.33 1007.45 1007.61 1007.73 1007.85 1007.97 1008.13 1008.25 1008.37 1008.49 1008.61 1008.73 1008.85 1009.01 1009.09
996.01 996.13 996.25 996.25 996.09 996.01 995.97 995.89 996.05 996.25 996.53 996.81 997.17 997.49 997.77 998.01 998.33 998.65 999.01 999.37 999.65 999.97 1000.21 1000.41 1000.69 1000.97 1001.25 1001.53 1001.81 1002.09 1002.33 1002.53 1002.81 1003.05 1003.33 1003.57 1003.81 1004.05 1004.29 1004.53 1004.77 1004.97 1005.17 1005.37 1005.53 1005.69 1005.89 1006.09 1006.29 1006.49 1006.65 1006.81 1006.97 1007.09 1007.25 1007.37 1007.53 1007.65 1007.77 1007.89 1008.01 1008.09 1008.25 1008.37 1008.49 1008.61 1008.69 1008.85 1008.97
995.85 995.97 996.09 996.09 996.05 996.09 996.09 996.13 996.17 996.37 996.65 996.97 997.29 997.61 997.89 998.17 998.49 998.81 999.09 999.45 999.77 1000.05 1000.29 1000.53 1000.81 1001.09 1001.33 1001.65 1001.93 1002.21 1002.45 1002.69 1002.93 1003.21 1003.45 1003.69 1003.93 1004.17 1004.37 1004.61 1004.81 1005.01 1005.25 1005.41 1005.57 1005.77 1005.93 1006.09 1006.29 1006.49 1006.65 1006.77 1006.89 1007.01 1007.17 1007.33 1007.45 1007.53 1007.69 1007.81 1007.89 1008.01 1008.09 1008.25 1008.33 1008.41 1008.53 1008.65 1008.81
995.89 996.09 996.21 996.21 996.25 996.25 996.29 996.33 996.37 996.53 996.85 997.21 997.53 997.81 998.05 998.33 998.65 998.97 999.25 999.61 999.89 1000.17 1000.41 1000.65 1000.93 1001.21 1001.45 1001.73 1001.97 1002.29 1002.57 1002.85 1003.09 1003.33 1003.53 1003.77 1004.01 1004.25 1004.49 1004.65 1004.89 1005.09 1005.29 1005.45 1005.57 1005.73 1005.89 1006.09 1006.29 1006.45 1006.57 1006.69 1006.81 1006.97 1007.09 1007.25 1007.37 1007.53 1007.61 1007.69 1007.77 1007.85 1007.97 1008.09 1008.17 1008.25 1008.33 1008.45 1008.57
996.09 996.25 996.37 996.45 996.53 996.53 996.49 996.37 996.53 996.77 997.05 997.37 997.69 997.97 998.25 998.53 998.85 999.17 999.49 999.77 1000.05 1000.33 1000.61 1000.85 1001.09 1001.37 1001.61 1001.89 1002.13 1002.37 1002.65 1002.97 1003.21 1003.45 1003.69 1003.89 1004.13 1004.37 1004.61 1004.81 1004.97 1005.13 1005.33 1005.49 1005.65 1005.81 1005.97 1006.09 1006.25 1006.33 1006.45 1006.61 1006.81 1006.97 1007.13 1007.29 1007.41 1007.53 1007.57 1007.65 1007.69 1007.73 1007.85 1007.97 1008.01 1008.09 1008.21 1008.29 1008.37
996.25 996.41 996.57 996.77 996.89 996.85 996.65 996.45 996.57 996.81 997.13 997.49 997.81 998.13 998.53 998.85 999.13 999.41 999.69 999.97 1000.29 1000.57 1000.81 1001.05 1001.25 1001.49 1001.73 1001.97 1002.25 1002.45 1002.69 1002.97 1003.17 1003.41 1003.69 1003.89 1004.17 1004.37 1004.61 1004.85 1005.09 1005.21 1005.41 1005.81 1006.37 1006.57 1006.49 1006.37 1006.37 1006.37 1006.41 1006.53 1006.77 1007.01 1007.21 1007.33 1007.45 1007.53 1007.57 1007.65 1007.69 1007.81 1007.93 1007.97 1008.05 1008.09 1008.17 1008.25 1008.33
996.45 996.65 996.89 997.09 997.25 997.09 996.81 996.61 996.69 996.97 997.33 997.69 998.09 998.45 998.81 999.09 999.37 999.61 999.93 1000.21 1000.49 1000.73 1000.97 1001.21 1001.45 1001.69 1001.97 1002.25 1002.53 1002.81 1003.09 1003.37 1003.69 1003.93 1004.17 1004.41 1004.69 1004.97 1005.17 1005.37 1005.57 1005.81 1006.13 1006.49 1006.65 1006.65 1006.61 1006.61 1006.61 1006.61 1006.61 1006.65 1006.89 1007.05 1007.17 1007.25 1007.37 1007.45 1007.57 1007.69 1007.81 1007.97 1008.09 1008.13 1008.17 1008.21 1008.25 1008.33 1008.37
996.65 996.85 997.05 997.33 997.61 997.37 996.97 996.81 996.97 997.25 997.57 997.97 998.37 998.69 999.01 999.25 999.53 999.81 1000.09 1000.37 1000.65 1000.97 1001.25 1001.57 1001.89 1002.21 1002.49 1002.81 1003.09 1003.37 1003.69 1003.97 1004.25 1004.53 1004.73 1005.01 1005.29 1005.53 1005.73 1005.93 1006.09 1006.37 1006.61 1006.77 1006.77 1006.69 1006.65 1006.65 1006.69 1006.73 1006.77 1006.81 1006.97 1007.09 1007.13 1007.17 1007.25 1007.37 1007.49 1007.57 1007.69 1007.81 1007.97 1008.05 1008.13 1008.17 1008.29 1008.53 1008.69
996.93 997.13 997.25 997.41 997.73 997.57 997.25 997.17 997.41 997.69 997.97 998.29 998.57 998.85 999.09 999.37 999.69 999.97 1000.25 1000.65 1000.97 1001.33 1001.69 1002.01 1002.29 1002.57 1002.85 1003.21 1003.49 1003.81 1004.09 1004.37 1004.65 1004.93 1005.17 1005.45 1005.69 1005.93 1006.13 1006.37 1006.53 1006.73 1006.89 1006.85 1006.77 1006.69 1006.65 1006.61 1006.65 1006.73 1006.81 1006.85 1007.05 1007.25 1007.41 1007.53 1007.57 1007.65 1007.73 1007.81 1007.85 1007.89 1007.93 1007.97 1008.05 1008.29 1008.65 1008.93 1009.05
997.29 997.61 997.65 997.65 997.69 997.69 997.69 997.77 997.97 998.13 998.29 998.45 998.65 998.97 999.25 999.57 999.97 1000.33 1000.69 1001.05 1001.37 1001.69 1002.05 1002.37 1002.61 1002.89 1003.21 1003.53 1003.89 1004.17 1004.45 1004.73 1005.01 1005.29 1005.53 1005.77 1006.01 1006.25 1006.53 1006.77 1006.93 1007.01 1007.01 1006.89 1006.77 1006.65 1006.65 1006.65 1006.69 1006.69 1006.81 1007.05 1007.33 1007.53 1007.69 1007.85 1008.01 1008.13 1008.25 1008.37 1008.41 1008.37 1008.37 1008.37 1008.53 1008.69 1008.89 1009.09 1009.25
997.93 998.25 998.13 997.97 997.89 997.97 998.17 998.37 998.41 998.49 998.61 998.81 999.09 999.41 999.77 1000.13 1000.53 1000.89 1001.21 1001.53 1001.81 1002.13 1002.45 1002.73 1002.97 1003.25 1003.57 1003.97 1004.25 1004.49 1004.81 1005.13 1005.37 1005.65 1005.85 1006.09 1006.37 1006.65 1006.89 1007.09 1007.25 1007.29 1007.25 1007.09 1006.93 1006.81 1006.85 1006.93 1006.93 1006.97 1007.05 1007.33 1007.61 1007.81 1008.05 1008.29 1008.37 1008.53 1008.69 1008.81 1008.81 1008.85 1008.85 1008.97 1009.05 1009.13 1009.25 1009.37 1009.53
998.33 998.81 998.69 998.53 998.53 998.65 998.81 998.85 998.93 998.97 999.17 999.41 999.73 1000.05 1000.37 1000.69 1001.09 1001.37 1001.73 1002.05 1002.37 1002.65 1002.89 1003.09 1003.33 1003.69 1004.05 1004.33 1004.61 1004.93 1005.21 1005.49 1005.73 1005.97 1006.17 1006.41 1006.73 1007.01 1007.25 1007.41 1007.57 1007.69 1007.65 1007.49 1007.37 1007.25 1007.29 1007.33 1007.41 1007.49 1007.57 1007.73 1007.93 1008.17 1008.41 1008.61 1008.77 1008.89 1009.05 1009.17 1009.25 1009.29 1009.37 1009.37 1009.45 1009.53 1009.69 1009.81 1009.93
998.41 999.17 999.37 999.25 999.33 999.33 999.25 999.21 999.29 999.49 999.69 999.97 1000.25 1000.57 1000.89 1001.25 1001.61 1001.97 1002.25 1002.53 1002.81 1003.05 1003.25 1003.53 1003.81 1004.09 1004.41 1004.73 1005.01 1005.33 1005.57 1005.85 1006.09 1006.37 1006.57 1006.81 1007.09 1007.33 1007.57 1007.81 1008.01 1008.17 1008.21 1008.05 1007.97 1007.85 1007.81 1007.85 1007.89 1007.97 1008.05 1008.13 1008.37 1008.61 1008.81 1009.05 1009.17 1009.33 1009.49 1009.61 1009.69 1009.69 1009.73 1009.81 1009.85 1009.97 1010.09 1010.25 1010.33
998.65 999.49 999.93 999.89 999.81 999.69 999.61 999.65 999.81 1000.01 1000.25 1000.53 1000.85 1001.17 1001.53 1001.85 1002.13 1002.45 1002.73 1002.97 1003.21 1003.41 1003.69 1003.93 1004.17 1004.49 1004.81 1005.13 1005.41 1005.69 1005.97 1006.25 1006.53 1006.81 1007.05 1007.25 1007.45 1007.69 1007.97 1008.29 1008.57 1008.77 1008.77 1008.65 1008.53 1008.45 1008.37 1008.37 1008.37 1008.37 1008.45 1008.57 1008.81 1009.09 1009.33 1009.49 1009.65 1009.81 1009.97 1010.09 1010.17 1010.21 1010.25 1010.25 1010.33 1010.37 1010.45 1010.57 1010.69
999.09 999.81 1000.25 1000.29 1000.21 1000.17 1000.21 1000.25 1000.37 1000.61 1000.89 1001.17 1001.53 1001.81 1002.09 1002.33 1002.65 1002.93 1003.21 1003.45 1003.69 1003.85 1004.09 1004.33 1004.61 1004.93 1005.25 1005.53 1005.77 1006.09 1006.41 1006.73 1006.97 1007.25 1007.49 1007.69 1007.93 1008.17 1008.53 1008.89 1009.13 1009.29 1009.25 1009.09 1008.97 1008.93 1008.85 1008.81 1008.77 1008.73 1008.81 1009.01 1009.29 1009.61 1009.81 1009.97 1010.13 1010.33 1010.49 1010.57 1010.65 1010.69 1010.73 1010.77 1010.81 1010.89 1010.97 1011.01 1011.13
999.57 1000.21 1000.57 1000.65 1000.77 1000.81 1000.81 1000.81 1000.97 1001.17 1001.45 1001.73 1002.09 1002.37 1002.65 1002.85 1003.13 1003.37 1003.65 1003.81 1003.97 1004.25 1004.53 1004.77 1005.05 1005.37 1005.65 1005.93 1006.21 1006.53 1006.81 1007.13 1007.45 1007.73 1007.97 1008.21 1008.41 1008.69 1009.01 1009.33 1009.57 1009.65 1009.53 1009.37 1009.33 1009.29 1009.25 1009.21 1009.13 1009.09 1009.13 1009.37 1009.77 1010.09 1010.29 1010.45 1010.65 1010.85 1010.97 1011.09 1011.13 1011.25 1011.29 1011.37 1011.41 1011.49 1011.53 1011.61 1011.69
1000.01 1000.53 1000.89 1001.09 1001.25 1001.37 1001.41 1001.49 1001.57 1001.77 1001.97 1002.29 1002.57 1002.85 1003.09 1003.37 1003.65 1003.85 1004.01 1004.09 1004.25 1004.53 1004.85 1005.17 1005.45 1005.73 1006.05 1006.37 1006.73 1007.05 1007.37 1007.65 1007.93 1008.25 1008.49 1008.65 1008.85 1009.09 1009.33 1009.57 1009.81 1009.85 1009.81 1009.69 1009.65 1009.65 1009.61 1009.57 1009.53 1009.45 1009.53 1009.77 1010.13 1010.45 1010.69 1010.93 1011.17 1011.37 1011.45 1011.53 1011.69 1011.81 1011.89 1011.97 1012.05 1012.09 1012.17 1012.25 1012.25
1000.49 1000.81 1001.21 1001.53 1001.77 1001.89 1001.97 1002.01 1002.05 1002.21 1002.49 1002.81 1003.05 1003.33 1003.53 1003.81 1004.05 1004.25 1004.33 1004.33 1004.53 1004.85 1005.25 1005.61 1005.93 1006.25 1006.61 1006.93 1007.29 1007.65 1007.93 1008.13 1008.37 1008.65 1008.85 1009.05 1009.21 1009.37 1009.57 1009.81 1010.01 1010.09 1010.09 1010.01 1009.97 1009.97 1009.97 1009.97 1009.97 1009.89 1009.93 1010.13 1010.53 1010.81 1011.09 1011.33 1011.61 1011.81 1011.93 1012.05 1012.25 1012.37 1012.49 1012.57 1012.65 1012.77 1012.81 1012.85 1012.89
1001.05 1001.33 1001.61 1001.97 1002.21 1002.33 1002.37 1002.41 1002.53 1002.69 1003.01 1003.25 1003.53 1003.73 1003.93 1004.09 1004.37 1004.53 1004.65 1004.69 1004.93 1005.33 1005.81 1006.17 1006.53 1006.93 1007.25 1007.53 1007.81 1008.13 1008.45 1008.65 1008.81 1008.97 1009.17 1009.37 1009.53 1009.69 1009.81 1010.01 1010.21 1010.37 1010.41 1010.37 1010.33 1010.29 1010.33 1010.33 1010.37 1010.37 1010.37 1010.53 1010.85 1011.13 1011.41 1011.69 1011.97 1012.21 1012.37 1012.53 1012.77 1012.93 1013.05 1013.13 1013.25 1013.33 1013.41 1013.49 1013.53
1001.65 1001.89 1002.09 1002.33 1002.53 1002.65 1002.73 1002.81 1002.97 1003.21 1003.41 1003.65 1003.85 1004.05 1004.21 1004.41 1004.65 1004.89 1005.09 1005.25 1005.49 1005.85 1006.33 1006.73 1007.17 1007.53 1007.81 1008.01 1008.25 1008.61 1008.93 1009.13 1009.25 1009.37 1009.53 1009.73 1009.93 1010.01 1010.09 1010.25 1010.53 1010.65 1010.73 1010.69 1010.65 1010.65 1010.73 1010.81 1010.81 1010.85 1010.89 1011.01 1011.21 1011.45 1011.69 1012.01 1012.29 1012.53 1012.77 1012.97 1013.17 1013.37 1013.53 1013.61 1013.69 1013.81 1013.97 1014.01 1014.05
1002.17 1002.37 1002.53 1002.65 1002.81 1002.93 1003.05 1003.21 1003.37 1003.57 1003.77 1003.93 1004.13 1004.33 1004.53 1004.81 1005.09 1005.37 1005.61 1005.85 1006.17 1006.53 1006.89 1007.29 1007.73 1008.09 1008.29 1008.49 1008.69 1009.01 1009.33 1009.57 1009.77 1009.89 1009.97 1010.13 1010.29 1010.37 1010.45 1010.57 1010.81 1010.97 1011.05 1011.05 1011.09 1011.09 1011.09 1011.21 1011.25 1011.29 1011.33 1011.41 1011.61 1011.81 1012.05 1012.25 1012.53 1012.81 1013.09 1013.33 1013.53 1013.69 1013.93 1014.09 1014.21 1014.33 1014.45 1014.57 1014.61
1002.53 1002.69 1002.81 1002.97 1003.09 1003.21 1003.33 1003.53 1003.73 1003.93 1004.09 1004.25 1004.49 1004.77 1005.01 1005.25 1005.53 1005.85 1006.13 1006.45 1006.77 1007.09 1007.49 1007.85 1008.25 1008.53 1008.73 1008.93 1009.13 1009.41 1009.69 1009.97 1010.21 1010.37 1010.45 1010.57 1010.65 1010.77 1010.85 1010.97 1011.13 1011.25 1011.37 1011.41 1011.45 1011.49 1011.53 1011.57 1011.65 1011.69 1011.73 1011.81 1012.01 1012.21 1012.37 1012.57 1012.81 1013.09 1013.41 1013.69 1013.81 1014.01 1014.25 1014.49 1014.65 1014.81 1014.97 1015.09 1015.17
Thickness
5617 5619 5623 5627 5629 5630 5631 5634 5636 5640 5645 5649 5642 5644 5650 5650 5652 5654 5656 5658 5660 5661 5663 5665 5667 5668 5669 5669 5668 5668 5668 5669 5670 5669 5669 5668 5668 5668 5667 5666 5666 5665 5665 5664 5664 5664 5664 5664 5664 5664 5663 5663 5663 5662 5661 5661 5659 5658 5657 5656 5655 5654 5653 5652 5652 5651 5651 5651 5650
5615 5617 5622 5627 5631 5632 5634 5637 5638 5644 5648 5647 5643 5644 5648 5651 5652 5654 5656 5658 5660 5662 5664 5665 5667 5667 5668 5669 5668 5669 5668 5669 5669 5668 5668 5667 5667 5666 5666 5665 5665 5664 5664 5663 5663 5663 5663 5663 5663 5663 5663 5662 5662 5662 5661 5661 5659 5658 5656 5655 5654 5654 5652 5651 5651 5651 5650 5649 5649
5613 5617 5623 5630 5635 5637 5639 5641 5642 5649 5653 5645 5646 5647 5650 5652 5653 5654 5655 5658 5660 5662 5663 5665 5665 5666 5667 5667 5668 5667 5668 5668 5667 5668 5667 5667 5666 5666 5665 5665 5664 5663 5663 5663 5662 5662 5662 5662 5661 5662 5662 5662 5661 5661 5661 5661 5660 5658 5656 5654 5654 5653 5652 5651 5651 5650 5649 5648 5648
5614 5619 5626 5633 5638 5641 5643 5643 5646 5651 5651 5645 5648 5651 5652 5653 5654 5655 5655 5657 5660 5662 5663 5664 5664 5664 5665 5665 5665 5666 5666 5666 5666 5667 5666 5666 5666 5665 5664 5664 5663 5662 5662 5662 5661 5660 5661 5661 5661 5661 5661 5661 5660 5660 5660 5659 5658 5657 5656 5655 5653 5652 5652 5651 5650 5650 5648 5647 5647
5616 5623 5629 5636 5642 5645 5643 5640 5647 5649 5647 5647 5651 5653 5653 5653 5653 5654 5655 5657 5660 5661 5663 5664 5664 5664 5663 5663 5664 5664 5664 5664 5664 5665 5665 5665 5665 5664 5664 5663 5663 5662 5661 5661 5660 5660 5659 5659 5659 5659 5659 5659 5659 5659 5659 5658 5657 5656 5655 5654 5653 5652 5651 5651 5650 5649 5648 5646 5645
5619 5625 5632 5639 5643 5645 5643 5639 5643 5644 5644 5649 5652 5653 5652 5652 5653 5654 5656 5658 5660 5662 5663 5663 5663 5663 5662 5662 5663 5663 5663 5663 5663 5664 5665 5665 5665 5664 5663 5662 5662 5661 5661 5660 5660 5659 5658 5658 5658 5658 5658 5657 5657 5657 5656 5656 5655 5654 5653 5653 5652 5651 5650 5649 5649 5648 5647 5646 5645
5622 5628 5634 5639 5643 5645 5643 5637 5637 5639 5644 5649 5651 5651 5651 5652 5653 5655 5657 5659 5661 5662 5662 5662 5662 5662 5662 5661 5661 5662 5663 5663 5663 5663 5664 5664 5665 5664 5663 5662 5661 5661 5660 5659 5659 5657 5657 5657 5656 5656 5656 5655 5655 5655 5654 5653 5653 5652 5651 5651 5650 5649 5649 5648 5648 5646 5645 5644 5643
5625 5630 5635 5640 5642 5643 5640 5633 5632 5635 5642 5647 5649 5651 5652 5653 5654 5656 5658 5660 5661 5662 5662 5662 5662 5662 5662 5662 5662 5662 5662 5662 5662 5662 5663 5664 5664 5663 5662 5662 5661 5660 5659 5658 5658 5656 5656 5655 5655 5655 5654 5654 5653 5653 5652 5651 5650 5650 5648 5648 5648 5647 5646 5646 5645 5644 5644 5643 5641
5625 5631 5636 5640 5642 5641 5637 5632 5630 5634 5641 5646 5649 5651 5652 5653 5655 5657 5658 5659 5661 5662 5662 5663 5662 5662 5662 5662 5663 5663 5662 5662 5662 5662 5662 5662 5662 5662 5662 5661 5660 5659 5658 5657 5656 5655 5654 5653 5653 5653 5652 5652 5651 5651 5650 5649 5648 5647 5646 5646 5645 5644 5644 5643 5643 5641 5641 5640 5639
5627 5631 5636 5639 5642 5640 5635 5632 5632 5636 5640 5646 5649 5650 5652 5653 5655 5657 5659 5660 5661 5662 5662 5662 5662 5661 5661 5661 5662 5662 5663 5662 5662 5662 5661 5661 5661 5661 5661 5660 5659 5658 5658 5656 5655 5654 5653 5652 5651 5651 5651 5650 5649 5648 5648 5647 5645 5644 5644 5643 5642 5642 5641 5641 5640 5639 5638 5637 5636
5629 5632 5636 5639 5640 5636 5632 5631 5634 5637 5641 5646 5649 5651 5652 5653 5655 5657 5658 5659 5660 5660 5661 5661 5661 5661 5661 5661 5662 5662 5662 5662 5662 5661 5660 5660 5660 5659 5660 5659 5658 5658 5656 5655 5654 5653 5652 5650 5650 5649 5648 5648 5647 5646 5645 5645 5643 5642 5641 5640 5640 5639 5639 5638 5637 5636 5635 5634 5633
5631 5634 5637 5638 5635 5631 5628 5630 5635 5639 5642 5647 5649 5650 5651 5653 5655 5656 5657 5658 5658 5659 5660 5661 5661 5661 5660 5661 5661 5662 5661 5661 5662 5661 5660 5659 5659 5658 5658 5657 5657 5656 5655 5654 5652 5651 5651 5650 5649 5647 5646 5645 5645 5644 5643 5642 5641 5640 5639 5638 5637 5637 5637 5636 5635 5634 5632 5631 5630
5632 5634 5635 5635 5632 5629 5629 5631 5636 5640 5644 5647 5649 5650 5652 5653 5655 5655 5656 5657 5657 5657 5658 5659 5660 5660 5660 5661 5661 5661 5660 5660 5660 5660 5659 5658 5657 5657 5656 5655 5655 5654 5654 5652 5651 5649 5649 5648 5647 5646 5645 5643 5642 5641 5641 5640 5638 5638 5637 5636 5635 5635 5635 5634 5632 5631 5630 5629 5628
5633 5634 5634 5632 5631 5631 5632 5633 5636 5641 5644 5647 5649 5650 5652 5653 5654 5655 5655 5655 5656 5656 5657 5657 5658 5659 5659 5660 5660 5660 5659 5659 5659 5659 5657 5656 5656 5655 5654 5654 5653 5653 5652 5650 5649 5648 5647 5646 5645 5644 5643 5641 5640 5640 5638 5637 5637 5636 5635 5634 5634 5633 5632 5631 5630 5629 5628 5627 5627
5632 5633 5633 5632 5630 5633 5635 5637 5637 5641 5645 5647 5649 5650 5652 5653 5654 5654 5654 5654 5655 5655 5656 5656 5656 5656 5657 5658 5658 5658 5658 5658 5658 5657 5656 5655 5654 5653 5653 5652 5651 5651 5650 5648 5647 5646 5645 5644 5643 5642 5641 5640 5639 5637 5636 5635 5635 5634 5634 5633 5632 5632 5631 5630 5629 5627 5626 5625 5625
5632 5632 5633 5632 5630 5635 5640 5638 5640 5642 5646 5647 5649 5650 5652 5652 5653 5653 5653 5653 5653 5654 5655 5655 5655 5655 5655 5656 5656 5657 5657 5657 5657 5656 5655 5655 5653 5652 5651 5650 5650 5649 5647 5646 5645 5644 5643 5642 5641 5640 5639 5638 5636 5635 5634 5633 5633 5632 5632 5632 5631 5631 5630 5628 5627 5626 5625 5624 5623
5633 5633 5632 5631 5634 5639 5641 5637 5642 5645 5646 5648 5649 5651 5651 5652 5652 5652 5652 5652 5653 5654 5654 5654 5654 5654 5654 5655 5655 5657 5657 5656 5656 5656 5655 5653 5652 5651 5650 5649 5648 5647 5646 5645 5643 5642 5641 5640 5639 5638 5637 5635 5635 5633 5633 5632 5631 5631 5630 5630 5630 5629 5628 5627 5626 5625 5624 5622 5622
5632 5632 5632 5633 5636 5638 5639 5641 5644 5646 5647 5649 5651 5651 5652 5652 5652 5651 5651 5652 5653 5653 5653 5653 5653 5653 5653 5654 5655 5655 5656 5656 5655 5654 5653 5652 5651 5650 5649 5648 5647 5645 5644 5643 5642 5640 5640 5638 5637 5636 5635 5634 5633 5632 5631 5630 5630 5629 5629 5628 5628 5627 5626 5625 5624 5623 5622 5622 5621
5635 5633 5632 5634 5635 5636 5640 5644 5646 5648 5649 5650 5651 5651 5651 5651 5651 5651 5651 5651 5650 5651 5651 5651 5651 5652 5652 5654 5654 5654 5654 5654 5653 5652 5651 5650 5649 5648 5648 5646 5645 5644 5642 5641 5640 5640 5638 5637 5636 5634 5633 5632 5631 5630 5629 5629 5627 5627 5627 5627 5625 5626 5625 5623 5622 5621 5620 5619 5619
5635 5634 5632 5632 5635 5638 5642 5645 5647 5648 5649 5650 5650 5650 5650 5650 5650 5650 5650 5650 5649 5650 5650 5650 5650 5651 5651 5652 5652 5652 5651 5651 5650 5650 5648 5647 5647 5646 5645 5644 5642 5641 5640 5639 5638 5637 5636 5634 5633 5632 5631 5630 5629 5629 5628 5627 5626 5625 5625 5624 5624 5623 5622 5622 5621 5619 5618 5618 5616
5629 5631 5632 5633 5635 5638 5641 5645 5647 5649 5649 5649 5649 5649 5648 5648 5648 5649 5649 5648 5648 5648 5648 5649 5650 5650 5650 5650 5650 5649 5648 5648 5647 5647 5646 5645 5644 5643 5642 5641 5640 5638 5637 5636 5634 5634 5633 5632 5631 5630 5629 5628 5627 5627 5626 5625 5624 5623 5623 5622 5622 5622 5621 5619 5618 5618 5617 5616 5615
5626 5628 5631 5633 5636 5638 5640 5643 5646 5647 5648 5647 5647 5647 5647 5647 5647 5647 5646 5646 5646 5646 5647 5648 5649 5649 5648 5648 5648 5647 5646 5645 5645 5644 5643 5642 5641 5640 5639 5638 5637 5635 5634 5633 5632 5631 5629 5629 5628 5627 5627 5626 5626 5625 5624 5623 5622 5621 5620 5620 5620 5619 5618 5618 5617 5616 5615 5614 5614
5626 5628 5631 5633 5636 5639 5642 5643 5645 5645 5645 5645 5644 5644 5645 5645 5645 5645 5644 5644 5645 5645 5646 5646 5646 5646 5646 5645 5644 5644 5643 5643 5641 5641 5640 5639 5639 5637 5636 5635 5634 5632 5631 5630 5629 5628 5627 5626 5625 5625 5624 5624 5624 5622 5621 5621 5619 5619 5618 5618 5617 5616 5616 5616 5615 5615 5614 5613 5613
5627 5630 5632 5634 5635 5637 5640 5643 5643 5643 5643 5643 5642 5642 5642 5642 5642 5642 5642 5642 5643 5643 5644 5644 5643 5644 5643 5643 5642 5641 5641 5640 5639 5639 5637 5637 5635 5634 5633 5632 5630 5629 5629 5627 5626 5626 5624 5624 5624 5624 5622 5622 5620 5620 5619 5617 5617 5616 5616 5615 5615 5615 5614 5614 5613 5612 5612 5611 5611
5628 5631 5632 5631 5633 5636 5639 5641 5642 5642 5642 5641 5640 5639 5638 5638 5638 5639 5639 5640 5640 5640 5641 5641 5641 5641 5640 5640 5640 5640 5640 5639 5638 5638 5636 5635 5634 5633 5632 5631 5629 5628 5626 5623 5618 5617 5618 5619 5620 5621 5620 5620 5618 5616 5615 5614 5613 5613 5612 5612 5612 5612 5611 5611 5610 5610 5610 5609 5608
5625 5629 5632 5631 5630 5633 5636 5639 5640 5640 5639 5638 5637 5635 5635 5634 5635 5636 5637 5637 5638 5638 5638 5638 5638 5638 5638 5637 5637 5636 5635 5634 5633 5632 5631 5629 5627 5626 5625 5623 5622 5620 5618 5616 5614 5614 5615 5615 5616 5616 5616 5616 5614 5613 5611 5610 5610 5610 5610 5610 5610 5609 5608 5608 5608 5608 5608 5608 5606
5622 5623 5626 5629 5630 5631 5633 5636 5637 5637 5635 5635 5634 5632 5632 5632 5633 5634 5635 5636 5636 5636 5635 5634 5633 5633 5633 5632 5631 5630 5629 5628 5626 5625 5624 5622 5620 5619 5618 5617 5615 5613 5611 5610 5611 5612 5612 5613 5613 5613 5612 5612 5611 5609 5609 5609 5609 5609 5609 5608 5608 5607 5607 5606 5605 5606 5605 5603 5601
5621 5621 5622 5623 5628 5628 5628 5630 5631 5631 5631 5631 5631 5631 5631 5631 5632 5633 5633 5633 5633 5631 5631 5630 5630 5629 5628 5627 5626 5625 5624 5622 5621 5619 5618 5616 5615 5614 5612 5611 5609 5608 5607 5607 5609 5610 5610 5610 5610 5610 5610 5609 5607 5605 5605 5604 5605 5605 5605 5604 5603 5604 5604 5603 5603 5601 5599 5596 5595
5619 5621 5622 5621 5623 5624 5624 5624 5626 5627 5628 5629 5629 5630 5630 5630 5630 5629 5629 5628 5628 5627 5627 5626 5625 5625 5624 5622 5621 5620 5618 5617 5615 5614 5613 5612 5610 5609 5607 5605 5604 5603 5604 5605 5606 5607 5607 5607 5607 5607 5606 5604 5602 5600 5600 5599 5598 5597 5597 5596 5596 5596 5597 5597 5596 5594 5593 5591 5590
5621 5622 5623 5620 5621 5621 5622 5622 5623 5624 5626 5626 5626 5626 5626 5625 5625 5624 5625 5624 5624 5623 5622 5622 5621 5620 5619 5617 5616 5614 5613 5612 5610 5610 5608 5608 5606 5604 5602 5601 5600 5599 5600 5601 5603 5603 5603 5603 5603 5603 5602 5600 5597 5595 5594 5593 5592 5591 5590 5590 5590 5590 5590 5589 5588 5588 5587 5586 5585
5620 5622 5622 5618 5619 5617 5616 5617 5618 5619 5619 5620 5620 5620 5621 5621 5620 5620 5620 5619 5618 5617 5617 5617 5616 5615 5613 5612 5610 5609 5609 5607 5606 5605 5604 5603 5600 5599 5597 5596 5595 5594 5594 5595 5597 5597 5597 5597 5596 5596 5595 5594 5592 5591 5588 5587 5586 5586 5585 5584 5584 5583 5583 5582 5582 5582 5582 5581 5580
5613 5615 5617 5612 5610 5610 5610 5611 5612 5614 5615 5615 5616 5616 5616 5616 5615 5615 5614 5614 5613 5612 5611 5611 5610 5609 5608 5607 5605 5605 5604 5602 5601 5600 5598 5597 5596 5594 5592 5591 5589 5588 5587 5588 5590 5590 5590 5590 5590 5589 5589 5588 5586 5584 5583 5582 5581 5579 5578 5578 5577 5577 5577 5576 5577 5576 5575 5574 5573
5609 5607 5607 5604 5603 5604 5605 5606 5608 5610 5610 5611 5611 5610 5610 5610 5609 5609 5608 5608 5608 5607 5606 5606 5605 5604 5603 5602 5601 5600 5599 5597 5596 5594 5593 5591 5590 5588 5587 5584 5582 5580 5580 5581 5583 5583 5584 5584 5584 5584 5583 5582 5580 5578 5576 5575 5574 5573 5572 5571 5570 5570 5570 5570 5570 5570 5569 5568 5568
5604 5601 5599 5597 5598 5599 5600 5602 5603 5604 5604 5604 5604 5604 5604 5604 5604 5603 5603 5602 5602 5602 5601 5601 5601 5600 5599 5598 5597 5595 5594 5592 5590 5589 5587 5585 5584 5583 5580 5577 5575 5574 5574 5576 5577 5578 5578 5578 5579 5578 5578 5576 5574 5571 5570 5568 5568 5566 5565 5564 5564 5563 5563 5564 5563 5563 5562 5562 5562
5598 5595 5592 5593 5593 5594 5595 5597 5598 5599 5599 5599 5598 5598 5598 5599 5599 5598 5597 5598 5598 5598 5597 5596 5596 5596 5594 5593 5592 5590 5588 5586 5585 5582 5581 5579 5577 5576 5574 5571 5570 5569 5570 5571 5573 5572 5573 5573 5573 5573 5573 5571 5568 5565 5563 5562 5561 5559 5559 5558 5558 5557 5557 5557 5556 5556 5556 5555 5555
5593 5590 5589 5588 5588 5588 5590 5591 5593 5593 5594 5594 5594 5594 5594 5594 5593 5593 5594 5595 5595 5594 5594 5592 5592 5591 5590 5587 5586 5584 5582 5581 5578 5576 5575 5573 5572 5571 5569 5567 5566 5566 5566 5567 5568 5568 5568 5568 5568 5569 5568 5566 5563 5560 5558 5556 5554 5553 5553 5552 5551 5550 5550 5549 5549 5548 5548 5548 5549
5589 5587 5586 5584 5584 5584 5585 5586 5588 5589 5589 5590 5589 5589 5589 5589 5589 5589 5591 5592 5592 5591 5589 5588 5587 5585 5583 5581 5580 5577 5575 5574 5572 5571 5569 5568 5567 5567 5565 5564 5563 5562 5562 5562 5563 5563 5563 5563 5563 5564 5563 5561 5558 5556 5553 5551 5549 5548 5546 5546 5544 5543 5543 5542 5542 5541 5541 5542 5541
5584 5583 5582 5580 5580 5580 5581 5583 5584 5585 5585 5585 5585 5585 5585 5586 5586 5586 5587 5588 5588 5586 5583 5582 5580 5578 5576 5575 5573 5571 5569 5568 5567 5566 5565 5563 5563 5562 5561 5560 5558 5558 5558 5558 5558 5559 5559 5558 5557 5558 5557 5556 5553 5551 5548 5546 5544 5542 5541 5539 5538 5536 5536 5535 5535 5535 5534 5535 5535
5578 5578 5577 5577 5577 5578 5579 5580 5580 5581 5581 5581 5582 5582 5582 5582 5582 5582 5582 5583 5582 5580 5577 5576 5573 5571 5569 5569 5567 5565 5563 5562 5561 5561 5560 5558 5558 5557 5557 5556 5555 5553 5553 5554 5554 5554 5554 5553 5553 5552 5552 5551 5548 5547 5544 5542 5539 5537 5535 5534 5532 5531 5530 5530 5529 5528 5528 5528 5529
5574 5574 5574 5574 5575 5576 5576 5577 5577 5577 5578 5579 5579 5579 5579 5579 5578 5577 5576 5576 5575 5573 5571 5569 5567 5565 5564 5562 5561 5560 5558 5556 5555 5555 5554 5553 5552 5552 5552 5552 5551 5549 5549 5549 5549 5549 5549 5548 5548 5547 5547 5546 5544 5542 5540 5538 5536 5533 5531 5529 5528 5526 5525 5524 5523 5523 5522 5522 5522
5570 5571 5571 5572 5572 5573 5574 5574 5574 5574 5575 5575 5574 5574 5574 5573 5573 5572 5571 5570 5568 5566 5565 5562 5560 5559 5558 5557 5556 5555 5553 5551 5549 5548 5548 5547 5547 5547 5547 5547 5546 5545 5545 5545 5545 5544 5544 5544 5543 5542 5542 5541 5539 5537 5536 5535 5532 5529 5527 5525 5524 5522 5520 5518 5518 5517 5516 5516 5516